Location: Franzen
(48.6167°N, 15.3833°E)
Time: 13:18:33
(UTC+00:00)

A-11 Canister half - Visible Passes

Search period start: 02 August 2021 00:00
Search period end: 12 August 2021 00:00
Orbit: 1513 x 1687 km, 47.2° (Epoch: 01 August)

Date Brightness Start Highest point End Pass type
(mag) Time Alt. Az. Time Alt. Az. Time Alt. Az.
02 Aug 9.2 20:39:51 10° WNW 20:49:44 62° SSW 20:56:31 23° SE visible
02 Aug 10.0 22:45:27 10° W 22:53:24 27° SW 22:54:40 26° SW visible
03 Aug 9.3 20:16:54 10° WNW 20:26:48 64° SSW 20:34:18 20° SE visible
03 Aug 9.9 22:22:25 10° W 22:30:33 29° SW 22:32:27 27° SSW visible
04 Aug 9.3 19:53:58 10° WNW 20:03:52 65° SSW 20:12:09 17° SE visible
04 Aug 9.9 21:59:22 10° W 22:07:42 30° SW 22:10:19 27° SSW visible
05 Aug 9.3 19:31:02 10° WNW 19:40:57 67° SSW 19:50:03 14° SE visible
05 Aug 9.9 21:36:21 10° WNW 21:44:51 32° SW 21:48:13 26° SSW visible
06 Aug 9.3 19:08:06 10° W 19:18:00 69° SSW 19:28:01 10° ESE visible
06 Aug 9.9 21:13:21 10° WNW 21:21:59 34° SW 21:26:11 25° S visible
07 Aug 9.3 18:45:10 10° W 18:55:04 71° SSW 19:05:10 10° ESE visible
07 Aug 9.9 20:50:21 10° WNW 20:59:07 36° SW 21:04:12 23° S visible
08 Aug 9.9 20:27:22 10° WNW 20:36:15 37° SW 20:42:16 20° S visible
09 Aug 9.9 20:04:23 10° WNW 20:13:22 39° SW 20:20:23 17° SSE visible
09 Aug 10.8 22:13:35 10° WSW 22:16:09 11° WSW 22:18:34 10° SW visible
10 Aug 9.9 19:41:25 10° WNW 19:50:30 41° SW 19:58:34 14° SSE visible
10 Aug 10.8 21:49:45 10° W 21:53:21 12° WSW 21:56:45 10° SW visible
11 Aug 9.8 19:18:27 10° WNW 19:27:37 43° SW 19:36:47 10° SSE visible
11 Aug 10.8 21:26:12 10° W 21:30:33 14° WSW 21:34:56 10° SSW visible
